{"data":{"norad_id":63009,"epoch":"2026-09-20T13:43:34.868640Z","epoch_age_seconds":158594,"freshness":"FRESH","line1":"1 63009U 25032E   26263.57193135  .00149557  00000+0  11468-2 0  9995","line2":"2 63009  43.0010 100.6627 0002238 290.2413  69.8214 15.70868316 92866","mean_motion":15.70868316,"eccentricity":0.0002238,"inclination_deg":43.001,"raan_deg":100.6627,"arg_perigee_deg":290.2413,"mean_anomaly_deg":69.8214,"bstar":0.0011468,"rev_number":9286,"period_min":91.669046051343,"perigee_km":354.90693781388,"apogee_km":357.92132289983,"semimajor_km":6734.5511303569,"source":"CELESTRAK","updated_at":"2026-09-22T09:00:49.739478Z"}}